Location: Paris
(48.8566°N, 2.3522°E)
Time: 11:32:15
(UTC+02:00)

Tiangong - Pass Details

Date: 29 September 2021
Orbit: 382 x 385 km, 41.5° (Epoch: 15 October)

Event Time Altitude Azimuth Distance (km) Brightness Sun altitude
Exits shadow 06:11:55 13° 182° (S) 1,226 3.4 -16.4°
Maximum altitude 06:12:49 14° 163° (SSE) 1,164 3.5 -16.2°
Drops below altitude 10° 06:14:38 10° 127° (SE) 1,397 4.4 -15.9°
Sets 06:17:21 0° 102° (ESE) 2,251 6.1 -15.5°
